QPF
0.00 0.00 0.00 0.00 0.00 0.00 0.00 0.00 0.00 0.00 0.00 0.00 0.00 0.00 0.00 0.00 0.00 0.00 0.00 0.00 0.00 0.00 0.01 0.00 0.00 0.01 0.00 0.00 0.00 0.00 0.00 0.00 0.00 0.00 0.00 0.00 0.00 0.00 0.00 0.00 0.00 0.00 0.00
0.00 0.00 0.00 0.00 0.00 0.00 0.00 0.00 0.00 0.00 0.00 0.00 0.00 0.00 0.00 0.00 0.00 0.00 0.00 0.00 0.00 0.00 0.00 0.00 0.00 0.01 0.01 0.00 0.00 0.00 0.00 0.00 0.00 0.00 0.00 0.00 0.00 0.00 0.00 0.00 0.00 0.00 0.00
0.00 0.00 0.00 0.00 0.00 0.00 0.00 0.00 0.00 0.00 0.00 0.00 0.00 0.00 0.00 0.00 0.00 0.00 0.00 0.00 0.00 0.00 0.00 0.00 0.00 0.00 0.01 0.01 0.00 0.00 0.00 0.00 0.00 0.00 0.00 0.00 0.00 0.00 0.00 0.00 0.00 0.00 0.00
0.00 0.00 0.00 0.00 0.00 0.00 0.00 0.00 0.00 0.00 0.00 0.00 0.00 0.00 0.00 0.00 0.00 0.00 0.00 0.00 0.00 0.00 0.00 0.00 0.00 0.00 0.00 0.00 0.00 0.00 0.00 0.00 0.00 0.00 0.00 0.00 0.00 0.00 0.00 0.00 0.00 0.00 0.00
0.00 0.00 0.00 0.00 0.00 0.00 0.00 0.00 0.00 0.00 0.00 0.00 0.00 0.00 0.00 0.00 0.00 0.00 0.00 0.00 0.00 0.00 0.00 0.00 0.00 0.00 0.00 0.00 0.00 0.00 0.00 0.00 0.00 0.00 0.00 0.00 0.00 0.00 0.00 0.00 0.00 0.00 0.00
0.00 0.00 0.00 0.00 0.00 0.00 0.00 0.00 0.00 0.00 0.00 0.00 0.00 0.00 0.00 0.00 0.00 0.00 0.00 0.00 0.00 0.00 0.00 0.00 0.00 0.00 0.00 0.00 0.00 0.00 0.00 0.00 0.00 0.00 0.00 0.00 0.00 0.00 0.00 0.00 0.00 0.01 0.01
0.00 0.00 0.00 0.00 0.00 0.00 0.00 0.00 0.00 0.00 0.00 0.00 0.00 0.00 0.00 0.00 0.00 0.00 0.00 0.00 0.00 0.00 0.00 0.00 0.00 0.00 0.00 0.00 0.00 0.00 0.00 0.00 0.00 0.00 0.00 0.00 0.00 0.00 0.00 0.00 0.01 0.01 0.01
0.00 0.00 0.00 0.00 0.00 0.00 0.00 0.00 0.00 0.00 0.00 0.00 0.00 0.00 0.00 0.00 0.00 0.00 0.00 0.00 0.00 0.00 0.00 0.00 0.00 0.00 0.00 0.00 0.00 0.00 0.00 0.00 0.00 0.00 0.00 0.00 0.00 0.00 0.00 0.01 0.01 0.01 0.01
0.01 0.00 0.00 0.00 0.00 0.00 0.00 0.00 0.00 0.00 0.00 0.00 0.00 0.00 0.00 0.00 0.00 0.00 0.00 0.00 0.00 0.00 0.00 0.00 0.00 0.00 0.00 0.00 0.00 0.00 0.00 0.00 0.00 0.00 0.00 0.00 0.00 0.00 0.00 0.01 0.01 0.01 0.01
0.00 0.00 0.00 0.00 0.00 0.00 0.00 0.00 0.00 0.00 0.00 0.00 0.00 0.00 0.00 0.00 0.00 0.00 0.00 0.00 0.00 0.00 0.00 0.00 0.00 0.00 0.00 0.00 0.00 0.00 0.00 0.00 0.00 0.00 0.00 0.00 0.00 0.00 0.00 0.01 0.01 0.01 0.01
0.01 0.00 0.00 0.00 0.00 0.00 0.00 0.00 0.00 0.00 0.00 0.00 0.00 0.00 0.00 0.00 0.00 0.00 0.00 0.00 0.00 0.00 0.00 0.00 0.00 0.00 0.00 0.00 0.00 0.00 0.00 0.00 0.00 0.00 0.00 0.00 0.00 0.00 0.00 0.00 0.00 0.01 0.01
0.01 0.01 0.00 0.00 0.00 0.00 0.00 0.00 0.00 0.00 0.00 0.00 0.00 0.00 0.00 0.00 0.00 0.00 0.00 0.00 0.00 0.00 0.00 0.00 0.00 0.00 0.00 0.00 0.00 0.00 0.00 0.00 0.00 0.00 0.00 0.00 0.00 0.00 0.00 0.00 0.00 0.00 0.00
0.01 0.00 0.00 0.00 0.00 0.00 0.00 0.00 0.00 0.00 0.00 0.00 0.00 0.00 0.00 0.00 0.00 0.00 0.00 0.00 0.00 0.00 0.00 0.00 0.00 0.00 0.00 0.00 0.00 0.00 0.00 0.00 0.00 0.00 0.00 0.00 0.00 0.00 0.00 0.00 0.00 0.00 0.00
0.01 0.01 0.00 0.00 0.00 0.00 0.00 0.00 0.00 0.00 0.00 0.00 0.00 0.00 0.00 0.00 0.00 0.00 0.00 0.01 0.00 0.00 0.00 0.00 0.00 0.00 0.00 0.00 0.00 0.00 0.00 0.00 0.00 0.00 0.00 0.00 0.00 0.00 0.00 0.00 0.00 0.00 0.00
0.02 0.01 0.01 0.00 0.00 0.00 0.00 0.00 0.00 0.00 0.00 0.00 0.00 0.00 0.00 0.00 0.00 0.00 0.00 0.00 0.01 0.01 0.00 0.00 0.00 0.00 0.00 0.00 0.00 0.00 0.00 0.00 0.00 0.00 0.00 0.00 0.00 0.00 0.00 0.00 0.00 0.00 0.00
0.04 0.03 0.01 0.01 0.00 0.00 0.00 0.00 0.00 0.00 0.00 0.00 0.00 0.00 0.00 0.00 0.00 0.00 0.00 0.00 0.00 0.01 0.01 0.00 0.00 0.00 0.00 0.00 0.01 0.00 0.00 0.00 0.00 0.00 0.00 0.00 0.00 0.00 0.00 0.00 0.00 0.00 0.01
0.09 0.05 0.03 0.02 0.01 0.00 0.00 0.00 0.00 0.00 0.00 0.00 0.00 0.00 0.00 0.00 0.00 0.00 0.00 0.00 0.00 0.01 0.01 0.01 0.00 0.00 0.00 0.00 0.00 0.00 0.00 0.00 0.00 0.00 0.00 0.00 0.00 0.00 0.00 0.00 0.00 0.01 0.01
0.11 0.10 0.07 0.04 0.02 0.01 0.00 0.00 0.00 0.00 0.00 0.00 0.00 0.00 0.00 0.00 0.00 0.00 0.00 0.00 0.00 0.00 0.01 0.01 0.00 0.00 0.00 0.00 0.00 0.00 0.00 0.00 0.00 0.00 0.01 0.01 0.01 0.01 0.01 0.01 0.01 0.00 0.00
0.09 0.09 0.08 0.06 0.04 0.03 0.01 0.00 0.00 0.00 0.00 0.00 0.00 0.00 0.00 0.00 0.00 0.00 0.00 0.00 0.00 0.00 0.01 0.01 0.01 0.01 0.00 0.00 0.00 0.00 0.00 0.00 0.01 0.01 0.01 0.01 0.01 0.01 0.01 0.00 0.00 0.00 0.00
0.07 0.07 0.06 0.05 0.03 0.03 0.02 0.01 0.00 0.00 0.00 0.00 0.00 0.00 0.00 0.00 0.00 0.00 0.00 0.00 0.01 0.01 0.01 0.01 0.01 0.01 0.01 0.00 0.00 0.00 0.00 0.01 0.01 0.01 0.01 0.01 0.01 0.01 0.01 0.00 0.00 0.00 0.00
0.04 0.05 0.06 0.05 0.03 0.02 0.02 0.01 0.01 0.00 0.00 0.00 0.00 0.00 0.00 0.00 0.00 0.00 0.00 0.00 0.01 0.01 0.01 0.01 0.01 0.01 0.01 0.01 0.00 0.00 0.00 0.00 0.00 0.00 0.00 0.00 0.00 0.00 0.00 0.00 0.00 0.00 0.00
0.03 0.03 0.04 0.04 0.03 0.03 0.03 0.02 0.01 0.00 0.00 0.00 0.00 0.00 0.00 0.00 0.01 0.01 0.01 0.01 0.01 0.01 0.01 0.01 0.01 0.01 0.01 0.01 0.01 0.01 0.01 0.00 0.00 0.00 0.00 0.00 0.00 0.00 0.00 0.00 0.00 0.00 0.00
0.05 0.03 0.02 0.03 0.03 0.03 0.03 0.03 0.02 0.01 0.01 0.00 0.00 0.00 0.00 0.00 0.00 0.00 0.01 0.01 0.02 0.02 0.02 0.01 0.01 0.01 0.01 0.01 0.01 0.01 0.01 0.00 0.00 0.00 0.00 0.00 0.00 0.00 0.00 0.00 0.00 0.00 0.00
0.08 0.06 0.04 0.02 0.02 0.02 0.03 0.03 0.02 0.02 0.01 0.01 0.00 0.00 0.00 0.00 0.00 0.01 0.01 0.02 0.02 0.02 0.02 0.01 0.01 0.01 0.01 0.01 0.01 0.00 0.00 0.00 0.00 0.00 0.00 0.00 0.00 0.00 0.00 0.00 0.00 0.00 0.00
0.06 0.06 0.06 0.05 0.03 0.03 0.03 0.03 0.03 0.02 0.02 0.01 0.01 0.01 0.01 0.00 0.01 0.02 0.02 0.02 0.02 0.01 0.02 0.02 0.01 0.01 0.01 0.01 0.01 0.00 0.00 0.01 0.01 0.01 0.00 0.00 0.00 0.00 0.00 0.00 0.00 0.00 0.00
0.04 0.05 0.05 0.05 0.04 0.04 0.04 0.04 0.04 0.03 0.03 0.02 0.02 0.01 0.01 0.01 0.02 0.02 0.01 0.01 0.01 0.01 0.01 0.01 0.02 0.01 0.01 0.01 0.01 0.01 0.01 0.01 0.01 0.01 0.00 0.00 0.00 0.00 0.00 0.00 0.00 0.00 0.00
MSLP
1012.38 1013.04 1013.69 1014.36 1015.01 1015.64 1016.23 1016.74 1017.16 1017.49 1017.72 1017.88 1017.99 1018.07 1018.14 1018.21 1018.30 1018.39 1018.49 1018.59 1018.68 1018.76 1018.84 1018.91 1018.99 1019.07 1019.15 1019.23 1019.31 1019.37 1019.41 1019.44 1019.46 1019.46 1019.46 1019.44 1019.42 1019.38 1019.32 1019.22 1019.09 1018.92 1018.72
1012.11 1012.73 1013.36 1014.01 1014.69 1015.37 1016.02 1016.61 1017.11 1017.50 1017.78 1017.98 1018.10 1018.19 1018.25 1018.32 1018.41 1018.51 1018.61 1018.72 1018.83 1018.92 1019.01 1019.08 1019.16 1019.22 1019.29 1019.35 1019.40 1019.44 1019.48 1019.49 1019.50 1019.50 1019.49 1019.48 1019.46 1019.42 1019.35 1019.24 1019.10 1018.92 1018.72
1011.88 1012.46 1013.06 1013.71 1014.40 1015.12 1015.82 1016.47 1017.03 1017.48 1017.82 1018.05 1018.20 1018.29 1018.36 1018.43 1018.51 1018.61 1018.72 1018.84 1018.95 1019.06 1019.15 1019.22 1019.29 1019.34 1019.39 1019.44 1019.47 1019.49 1019.51 1019.51 1019.50 1019.49 1019.47 1019.44 1019.41 1019.36 1019.28 1019.16 1019.01 1018.83 1018.61
1011.69 1012.25 1012.84 1013.48 1014.18 1014.92 1015.65 1016.34 1016.95 1017.44 1017.82 1018.08 1018.25 1018.35 1018.43 1018.50 1018.58 1018.68 1018.80 1018.92 1019.04 1019.14 1019.23 1019.30 1019.36 1019.40 1019.44 1019.46 1019.48 1019.48 1019.48 1019.46 1019.44 1019.40 1019.36 1019.32 1019.26 1019.19 1019.09 1018.96 1018.80 1018.61 1018.39
1011.53 1012.09 1012.68 1013.33 1014.03 1014.77 1015.51 1016.22 1016.85 1017.36 1017.76 1018.04 1018.23 1018.35 1018.44 1018.52 1018.60 1018.71 1018.82 1018.94 1019.05 1019.15 1019.23 1019.29 1019.33 1019.36 1019.38 1019.39 1019.39 1019.38 1019.36 1019.33 1019.29 1019.23 1019.16 1019.08 1019.00 1018.90 1018.78 1018.63 1018.46 1018.27 1018.05
1011.38 1011.97 1012.58 1013.23 1013.93 1014.66 1015.40 1016.09 1016.72 1017.24 1017.64 1017.93 1018.13 1018.26 1018.37 1018.46 1018.56 1018.67 1018.78 1018.89 1018.99 1019.07 1019.13 1019.16 1019.18 1019.19 1019.20 1019.20 1019.19 1019.18 1019.15 1019.10 1019.04 1018.96 1018.86 1018.75 1018.63 1018.49 1018.34 1018.18 1018.00 1017.80 1017.59
1011.20 1011.84 1012.48 1013.14 1013.84 1014.56 1015.27 1015.95 1016.54 1017.04 1017.44 1017.73 1017.94 1018.09 1018.21 1018.33 1018.44 1018.56 1018.67 1018.77 1018.84 1018.90 1018.92 1018.92 1018.91 1018.90 1018.88 1018.88 1018.87 1018.86 1018.83 1018.78 1018.71 1018.60 1018.48 1018.33 1018.17 1018.00 1017.82 1017.63 1017.44 1017.24 1017.04
1010.96 1011.65 1012.33 1013.02 1013.72 1014.42 1015.11 1015.74 1016.31 1016.78 1017.16 1017.45 1017.67 1017.85 1018.00 1018.13 1018.26 1018.39 1018.49 1018.58 1018.62 1018.64 1018.62 1018.58 1018.53 1018.49 1018.47 1018.46 1018.46 1018.45 1018.44 1018.39 1018.31 1018.19 1018.04 1017.86 1017.66 1017.45 1017.24 1017.04 1016.84 1016.64 1016.44
1010.64 1011.39 1012.11 1012.82 1013.52 1014.21 1014.87 1015.47 1016.01 1016.46 1016.82 1017.12 1017.36 1017.56 1017.73 1017.90 1018.05 1018.18 1018.28 1018.34 1018.35 1018.32 1018.25 1018.17 1018.09 1018.02 1017.99 1017.98 1017.99 1018.01 1018.01 1017.98 1017.90 1017.77 1017.60 1017.38 1017.15 1016.90 1016.66 1016.44 1016.22 1016.02 1015.83
1010.23 1011.03 1011.79 1012.52 1013.23 1013.91 1014.55 1015.13 1015.64 1016.08 1016.44 1016.75 1017.01 1017.24 1017.45 1017.65 1017.82 1017.96 1018.05 1018.08 1018.05 1017.98 1017.86 1017.74 1017.62 1017.54 1017.50 1017.50 1017.53 1017.57 1017.59 1017.58 1017.51 1017.38 1017.19 1016.95 1016.68 1016.40 1016.14 1015.89 1015.66 1015.46 1015.26
1009.75 1010.58 1011.37 1012.12 1012.84 1013.51 1014.14 1014.71 1015.21 1015.65 1016.03 1016.36 1016.65 1016.92 1017.17 1017.39 1017.59 1017.73 1017.81 1017.82 1017.76 1017.64 1017.49 1017.32 1017.18 1017.08 1017.04 1017.05 1017.10 1017.17 1017.22 1017.23 1017.17 1017.04 1016.84 1016.58 1016.29 1015.99 1015.69 1015.42 1015.18 1014.97 1014.77
1009.22 1010.07 1010.88 1011.64 1012.36 1013.04 1013.67 1014.24 1014.75 1015.20 1015.61 1015.97 1016.30 1016.60 1016.89 1017.14 1017.35 1017.50 1017.57 1017.56 1017.47 1017.32 1017.14 1016.95 1016.79 1016.68 1016.64 1016.67 1016.74 1016.83 1016.90 1016.93 1016.89 1016.76 1016.56 1016.29 1015.98 1015.66 1015.35 1015.06 1014.81 1014.59 1014.39
1008.68 1009.54 1010.35 1011.11 1011.84 1012.52 1013.15 1013.73 1014.26 1014.74 1015.17 1015.57 1015.94 1016.28 1016.60 1016.87 1017.09 1017.25 1017.31 1017.29 1017.19 1017.02 1016.82 1016.61 1016.45 1016.34 1016.31 1016.34 1016.43 1016.53 1016.63 1016.67 1016.64 1016.52 1016.32 1016.06 1015.75 1015.42 1015.10 1014.81 1014.55 1014.32 1014.11
1008.14 1009.00 1009.81 1010.57 1011.30 1011.98 1012.62 1013.22 1013.76 1014.27 1014.73 1015.16 1015.56 1015.93 1016.27 1016.56 1016.80 1016.95 1017.02 1016.99 1016.88 1016.71 1016.51 1016.31 1016.14 1016.04 1016.02 1016.06 1016.15 1016.27 1016.37 1016.43 1016.41 1016.30 1016.12 1015.86 1015.56 1015.25 1014.94 1014.65 1014.39 1014.16 1013.95
1007.64 1008.48 1009.28 1010.04 1010.76 1011.44 1012.09 1012.69 1013.26 1013.79 1014.27 1014.72 1015.15 1015.54 1015.89 1016.19 1016.43 1016.59 1016.66 1016.65 1016.55 1016.39 1016.20 1016.02 1015.87 1015.78 1015.76 1015.80 1015.90 1016.01 1016.12 1016.17 1016.16 1016.07 1015.91 1015.68 1015.40 1015.12 1014.83 1014.57 1014.32 1014.10 1013.88
1007.16 1008.00 1008.79 1009.54 1010.25 1010.93 1011.57 1012.18 1012.76 1013.29 1013.79 1014.25 1014.69 1015.08 1015.44 1015.75 1016.00 1016.16 1016.25 1016.25 1016.18 1016.05 1015.90 1015.74 1015.61 1015.54 1015.52 1015.57 1015.66 1015.76 1015.85 1015.91 1015.90 1015.83 1015.69 1015.49 1015.26 1015.02 1014.77 1014.54 1014.32 1014.12 1013.91
1006.72 1007.55 1008.33 1009.07 1009.77 1010.44 1011.08 1011.68 1012.25 1012.78 1013.28 1013.74 1014.17 1014.57 1014.93 1015.24 1015.49 1015.68 1015.79 1015.83 1015.80 1015.72 1015.61 1015.49 1015.40 1015.34 1015.34 1015.38 1015.45 1015.53 1015.61 1015.66 1015.65 1015.59 1015.48 1015.32 1015.13 1014.94 1014.74 1014.55 1014.37 1014.19 1014.00
1006.29 1007.12 1007.90 1008.63 1009.32 1009.98 1010.60 1011.19 1011.75 1012.27 1012.75 1013.20 1013.62 1014.01 1014.37 1014.68 1014.95 1015.17 1015.32 1015.41 1015.44 1015.42 1015.37 1015.31 1015.26 1015.23 1015.23 1015.26 1015.32 1015.38 1015.44 1015.46 1015.45 1015.40 1015.31 1015.19 1015.04 1014.89 1014.74 1014.60 1014.45 1014.30 1014.12
1005.88 1006.71 1007.48 1008.21 1008.90 1009.54 1010.15 1010.71 1011.25 1011.75 1012.21 1012.65 1013.06 1013.44 1013.80 1014.14 1014.44 1014.69 1014.90 1015.05 1015.16 1015.21 1015.24 1015.24 1015.24 1015.24 1015.25 1015.28 1015.32 1015.36 1015.38 1015.39 1015.36 1015.31 1015.23 1015.13 1015.02 1014.90 1014.78 1014.67 1014.54 1014.41 1014.25
1005.48 1006.31 1007.09 1007.82 1008.49 1009.12 1009.71 1010.25 1010.76 1011.24 1011.69 1012.11 1012.52 1012.91 1013.28 1013.65 1013.99 1014.30 1014.57 1014.81 1014.99 1015.14 1015.24 1015.32 1015.37 1015.41 1015.44 1015.47 1015.49 1015.51 1015.50 1015.48 1015.44 1015.38 1015.29 1015.20 1015.09 1014.98 1014.88 1014.76 1014.65 1014.51 1014.35
1005.08 1005.92 1006.71 1007.43 1008.10 1008.72 1009.29 1009.82 1010.31 1010.76 1011.20 1011.62 1012.04 1012.45 1012.86 1013.26 1013.66 1014.04 1014.40 1014.72 1015.00 1015.23 1015.42 1015.57 1015.68 1015.76 1015.81 1015.85 1015.86 1015.86 1015.83 1015.78 1015.71 1015.63 1015.52 1015.40 1015.28 1015.16 1015.03 1014.89 1014.75 1014.58 1014.39
1004.70 1005.55 1006.33 1007.06 1007.73 1008.35 1008.90 1009.42 1009.89 1010.35 1010.78 1011.22 1011.66 1012.10 1012.56 1013.03 1013.49 1013.96 1014.40 1014.81 1015.18 1015.50 1015.77 1015.99 1016.16 1016.28 1016.36 1016.41 1016.42 1016.41 1016.36 1016.28 1016.18 1016.06 1015.92 1015.76 1015.60 1015.42 1015.24 1015.05 1014.84 1014.62 1014.37
1004.33 1005.17 1005.97 1006.71 1007.38 1007.99 1008.55 1009.06 1009.54 1010.00 1010.46 1010.92 1011.41 1011.91 1012.43 1012.97 1013.51 1014.06 1014.58 1015.08 1015.53 1015.93 1016.27 1016.56 1016.78 1016.94 1017.06 1017.12 1017.13 1017.11 1017.05 1016.95 1016.82 1016.66 1016.47 1016.26 1016.03 1015.78 1015.51 1015.23 1014.94 1014.63 1014.30
1003.95 1004.80 1005.61 1006.36 1007.05 1007.67 1008.24 1008.76 1009.27 1009.76 1010.25 1010.77 1011.31 1011.88 1012.48 1013.09 1013.72 1014.34 1014.94 1015.51 1016.04 1016.50 1016.90 1017.23 1017.49 1017.69 1017.83 1017.91 1017.93 1017.91 1017.84 1017.72 1017.56 1017.36 1017.12 1016.85 1016.54 1016.20 1015.84 1015.45 1015.05 1014.63 1014.19
1003.56 1004.43 1005.26 1006.03 1006.74 1007.38 1007.98 1008.54 1009.08 1009.62 1010.18 1010.76 1011.38 1012.03 1012.70 1013.40 1014.10 1014.80 1015.46 1016.09 1016.65 1017.16 1017.60 1017.96 1018.25 1018.47 1018.62 1018.71 1018.75 1018.72 1018.65 1018.52 1018.34 1018.11 1017.82 1017.48 1017.10 1016.67 1016.21 1015.71 1015.18 1014.64 1014.09
1003.17 1004.05 1004.90 1005.70 1006.45 1007.14 1007.78 1008.39 1009.00 1009.60 1010.24 1010.90 1011.61 1012.34 1013.10 1013.88 1014.64 1015.39 1016.10 1016.76 1017.36 1017.88 1018.33 1018.70 1019.00 1019.23 1019.38 1019.48 1019.52 1019.50 1019.42 1019.28 1019.08 1018.82 1018.50 1018.11 1017.66 1017.15 1016.59 1015.99 1015.35 1014.69 1014.03
Thickness
5700 5698 5696 5694 5693 5691 5689 5688 5687 5686 5684 5683 5683 5681 5680 5679 5677 5675 5672 5669 5667 5666 5664 5662 5659 5656 5653 5650 5646 5642 5639 5635 5631 5628 5624 5620 5616 5612 5607 5603 5599 5595 5591
5696 5693 5692 5690 5688 5686 5685 5684 5683 5681 5680 5679 5678 5677 5676 5674 5672 5670 5668 5665 5662 5660 5659 5657 5654 5651 5648 5645 5641 5637 5633 5629 5626 5622 5618 5614 5609 5605 5601 5597 5592 5588 5584
5691 5689 5687 5685 5683 5681 5680 5679 5678 5676 5675 5674 5673 5672 5671 5669 5668 5666 5663 5661 5659 5656 5654 5652 5649 5646 5643 5640 5636 5632 5628 5624 5620 5616 5612 5607 5603 5599 5595 5590 5586 5582 5577
5685 5684 5682 5681 5679 5677 5675 5674 5673 5671 5670 5669 5669 5667 5666 5663 5663 5661 5659 5657 5654 5652 5649 5646 5644 5641 5638 5635 5631 5627 5623 5619 5614 5610 5606 5601 5597 5593 5589 5584 5580 5575 5571
5680 5679 5678 5676 5674 5672 5671 5670 5669 5668 5666 5665 5664 5662 5661 5659 5658 5656 5655 5652 5650 5647 5645 5642 5638 5636 5633 5630 5626 5622 5618 5614 5609 5605 5600 5596 5591 5587 5583 5578 5573 5569 5564
5675 5674 5673 5672 5670 5668 5667 5666 5664 5663 5662 5660 5658 5656 5656 5655 5653 5652 5651 5648 5645 5643 5640 5638 5635 5632 5628 5624 5621 5617 5613 5609 5604 5600 5595 5590 5586 5581 5577 5572 5567 5563 5558
5671 5670 5669 5667 5666 5665 5663 5662 5661 5658 5656 5655 5653 5651 5651 5650 5650 5648 5646 5645 5642 5639 5636 5633 5631 5628 5625 5620 5616 5612 5608 5604 5599 5595 5590 5585 5580 5576 5571 5566 5561 5556 5552
5667 5666 5665 5664 5662 5661 5659 5659 5657 5655 5652 5650 5650 5648 5648 5647 5646 5644 5643 5640 5639 5636 5633 5629 5627 5623 5620 5617 5613 5607 5603 5598 5594 5589 5584 5580 5575 5570 5565 5560 5555 5550 5545
5663 5663 5662 5661 5659 5658 5657 5655 5653 5652 5649 5646 5647 5647 5646 5647 5645 5642 5639 5637 5635 5633 5630 5627 5623 5620 5616 5612 5608 5603 5598 5594 5589 5584 5579 5574 5570 5564 5559 5554 5549 5544 5539
5659 5659 5658 5658 5656 5655 5654 5652 5650 5649 5647 5643 5641 5641 5643 5643 5641 5639 5636 5634 5632 5629 5627 5623 5620 5617 5613 5608 5604 5599 5594 5589 5584 5579 5574 5569 5564 5559 5553 5548 5542 5537 5532
5654 5655 5655 5654 5653 5652 5651 5649 5647 5645 5644 5642 5639 5637 5635 5634 5635 5635 5634 5631 5629 5626 5623 5620 5617 5614 5610 5605 5600 5595 5590 5584 5579 5574 5569 5564 5558 5553 5547 5541 5536 5530 5525
5651 5651 5651 5651 5650 5649 5648 5646 5644 5642 5641 5639 5637 5635 5633 5631 5630 5630 5629 5628 5627 5624 5620 5616 5613 5610 5605 5601 5596 5591 5585 5579 5574 5569 5563 5558 5552 5546 5540 5535 5529 5523 5517
5649 5649 5648 5648 5647 5646 5645 5643 5641 5639 5637 5636 5634 5633 5631 5630 5629 5627 5625 5624 5622 5620 5616 5612 5609 5606 5601 5596 5592 5586 5580 5575 5569 5563 5558 5552 5546 5540 5534 5528 5522 5516 5510
5649 5648 5646 5646 5645 5643 5641 5639 5638 5636 5635 5633 5631 5630 5628 5626 5624 5622 5620 5618 5616 5616 5613 5610 5606 5601 5596 5591 5586 5580 5576 5570 5564 5558 5552 5546 5540 5533 5527 5521 5515 5508 5502
5646 5644 5644 5643 5642 5640 5638 5637 5636 5635 5633 5631 5630 5627 5625 5624 5621 5619 5616 5613 5610 5609 5611 5609 5602 5598 5591 5586 5581 5575 5571 5565 5559 5553 5546 5540 5534 5527 5521 5514 5507 5500 5493
5643 5642 5640 5640 5639 5637 5636 5634 5634 5633 5631 5629 5627 5625 5623 5621 5618 5614 5612 5609 5606 5604 5604 5604 5598 5592 5586 5579 5574 5569 5565 5559 5553 5547 5541 5534 5527 5521 5514 5507 5500 5492 5484
5639 5639 5638 5636 5636 5635 5634 5633 5632 5630 5629 5627 5624 5622 5621 5618 5615 5611 5608 5605 5601 5598 5597 5597 5592 5586 5579 5574 5568 5563 5558 5553 5548 5540 5534 5528 5521 5514 5507 5499 5492 5484 5476
5636 5636 5635 5634 5633 5632 5632 5631 5630 5628 5627 5625 5623 5620 5618 5615 5612 5609 5605 5601 5598 5594 5591 5590 5586 5580 5573 5567 5562 5557 5551 5545 5540 5534 5527 5521 5514 5507 5499 5491 5483 5475 5467
5633 5632 5631 5631 5631 5630 5630 5629 5627 5626 5625 5623 5621 5618 5616 5612 5609 5606 5602 5598 5594 5589 5585 5582 5579 5572 5566 5560 5554 5549 5544 5538 5532 5526 5519 5513 5506 5499 5491 5483 5475 5466 5457
5629 5629 5629 5628 5628 5627 5626 5625 5624 5624 5622 5620 5618 5616 5613 5610 5607 5603 5599 5595 5590 5584 5579 5574 5570 5566 5559 5552 5546 5543 5539 5532 5525 5519 5512 5505 5499 5491 5483 5475 5467 5457 5448
5626 5626 5624 5624 5624 5624 5624 5623 5621 5620 5619 5616 5614 5612 5610 5607 5604 5600 5595 5591 5585 5579 5573 5568 5564 5559 5553 5547 5541 5535 5530 5525 5519 5511 5504 5499 5492 5485 5476 5467 5457 5448 5438
5621 5621 5621 5621 5621 5622 5621 5619 5618 5616 5614 5612 5610 5608 5605 5600 5597 5592 5588 5584 5580 5575 5570 5564 5559 5553 5549 5542 5534 5527 5522 5516 5513 5505 5496 5491 5482 5475 5467 5458 5448 5438 5428
5615 5616 5617 5618 5619 5619 5616 5615 5612 5612 5610 5609 5606 5603 5600 5597 5592 5587 5581 5576 5571 5566 5563 5560 5553 5548 5541 5534 5527 5520 5513 5507 5502 5494 5485 5482 5474 5465 5456 5448 5438 5428 5419
5610 5612 5614 5614 5615 5615 5612 5610 5607 5606 5605 5604 5602 5599 5596 5592 5587 5582 5576 5570 5565 5559 5554 5549 5545 5539 5532 5526 5519 5513 5505 5497 5491 5482 5474 5470 5465 5456 5446 5438 5428 5419 5410
5604 5606 5609 5610 5610 5610 5607 5604 5601 5600 5599 5597 5595 5593 5591 5587 5582 5576 5570 5565 5558 5551 5545 5540 5535 5528 5522 5516 5510 5503 5495 5488 5483 5476 5464 5457 5454 5446 5438 5430 5421 5411 5402
5598 5600 5603 5605 5606 5605 5601 5599 5596 5596 5593 5590 5588 5586 5583 5581 5575 5569 5565 5560 5553 5546 5538 5531 5525 5519 5513 5507 5500 5494 5487 5479 5473 5466 5456 5446 5441 5433 5429 5422 5412 5404 5396